Tracking 33744 objects as of 14-Apr-2026
HD Live streaming from Space Station
objects crossing your sky now

STARLINK-4723

Track STARLINK-4723 now!
10-day predictions
STARLINK-4723 is classified as:


NORAD ID: 53797
Int'l Code: 2022-111AA
Perigee: 546.2 km
Apogee: 547.5 km
Inclination: 53.2 °
Period: 95.4 minutes
Semi major axis: 6917 km
RCS: Unknown
Launch date: September 11, 2022
Source: United States (US)
Launch site: AIR FORCE EASTERN TEST RANGE (AFETR)
Your satellite tracking list
Your tracking list is empty




NASA's NSSDC Master Catalog

Two Line Element Set (TLE):
1 53797U 22111AA  26104.53438929  .00003898  00000-0  26270-3 0  9992
2 53797  53.2164 112.7711 0000952  77.8305 282.2794 15.08860252199099
Source of the keplerian elements: AFSPC